When you browse on this site, cookies collect data to enhance your experience and personalize the content and advertising you see.
Visit our Privacy Policy to learn more. By continuing to use the site, you agree to this use of cookies and data.
  • In Hungary
  • List of Countries
  • For 7 days
  • Water Temperature
  • Satellite Maps
  • Weather Map
  • News
  • Weather Widgets
  • user-avatar
    Login

    Hourly Weather Jaguariaiva

    Today, 17 January, Thursday

    Time Temperature Precipitation Wind Pressure Humidity
    00:00 +23°C° 0 mm 1 mps 689 mmHg 91%
    01:00 +23°C° 0 mm 1 mps 689 mmHg 90%
    02:00 +22°C° 0 mm 1 mps 689 mmHg 90%
    03:00 +22°C° 0 mm 1 mps 689 mmHg 89%
    04:00 +22°C° 0 mm 1 mps 689 mmHg 89%
    05:00 +22°C° 0 mm 1 mps 689 mmHg 89%
    06:00 +22°C° 0 mm 1 mps 689 mmHg 88%
    07:00 +24°C° 0 mm 1 mps 690 mmHg 80%
    08:00 +26°C° 0 mm 1 mps 690 mmHg 71%
    09:00 +29°C° 0 mm 1 mps 691 mmHg 62%
    10:00 +30°C° 0 mm 1 mps 691 mmHg 57%
    11:00 +32°C° 0 mm 2 mps 691 mmHg 53%
    12:00 +34°C° 0 mm 2 mps 691 mmHg 48%
    13:00 +34°C° 0 mm 2 mps 690 mmHg 49%
    14:00 +34°C° 0 mm 2 mps 690 mmHg 51%
    15:00 +34°C° 0 mm 2 mps 689 mmHg 52%
    16:00 +31°C° 1.1 mm 2 mps 689 mmHg 61%
    17:00 +30°C° 1.1 mm 1 mps 688 mmHg 69%
    18:00 +29°C° 1.1 mm 1 mps 688 mmHg 78%
    19:00 +27°C° 1.3 mm 1 mps 688 mmHg 82%
    20:00 +26°C° 1.3 mm 1 mps 688 mmHg 87%
    21:00 +24°C° 1.3 mm 1 mps 689 mmHg 91%
    22:00 +24°C° 2.2 mm 1 mps 689 mmHg 93%
    23:00 +23°C° 2.2 mm 1 mps 689 mmHg 94%

    Tomorrow, 18 January, Friday

    Time Temperature Precipitation Wind Pressure Humidity
    00:00 +23°C° 2.2 mm 2 mps 690 mmHg 96%
    01:00 +23°C° 2 mm 1 mps 689 mmHg 96%
    02:00 +23°C° 2 mm 1 mps 689 mmHg 96%
    03:00 +20°C° 2 mm 0 mps 689 mmHg 97%
    04:00 +22°C° 0.4 mm 1 mps 689 mmHg 96%
    05:00 +22°C° 0.4 mm 1 mps 689 mmHg 96%
    06:00 +22°C° 0.4 mm 1 mps 688 mmHg 96%
    07:00 +23°C° 0 mm 1 mps 689 mmHg 92%
    08:00 +24°C° 0 mm 1 mps 689 mmHg 88%
    09:00 +26°C° 0 mm 1 mps 690 mmHg 84%
    10:00 +26°C° 1.4 mm 1 mps 689 mmHg 83%
    11:00 +27°C° 1.4 mm 1 mps 689 mmHg 81%
    12:00 +28°C° 1.4 mm 1 mps 689 mmHg 80%
    13:00 +28°C° 1.8 mm 1 mps 689 mmHg 79%
    14:00 +28°C° 1.8 mm 1 mps 688 mmHg 79%
    15:00 +28°C° 1.8 mm 1 mps 688 mmHg 79%
    16:00 +27°C° 1.8 mm 1 mps 688 mmHg 83%
    17:00 +25°C° 1.8 mm 0 mps 687 mmHg 87%
    18:00 +24°C° 1.8 mm 0 mps 687 mmHg 91%
    19:00 +23°C° 0.5 mm 0 mps 687 mmHg 92%
    20:00 +22°C° 0.5 mm 0 mps 688 mmHg 93%
    21:00 +23°C° 0.5 mm 1 mps 688 mmHg 94%
    22:00 +23°C° 0.1 mm 1 mps 688 mmHg 94%
    23:00 +23°C° 0.1 mm 1 mps 688 mmHg 94%

    Day after tomorrow, 19 January, Saturday

    Time Temperature Precipitation Wind Pressure Humidity
    00:00 +22°C° 0.1 mm 1 mps 688 mmHg 95%
    01:00 +22°C° 0 mm 1 mps 687 mmHg 95%
    02:00 +22°C° 0 mm 1 mps 687 mmHg 95%
    03:00 +22°C° 0 mm 1 mps 686 mmHg 95%
    04:00 +21°C° 0 mm 1 mps 686 mmHg 95%
    05:00 +21°C° 0 mm 1 mps 686 mmHg 95%
    06:00 +21°C° 0 mm 1 mps 686 mmHg 96%
    07:00 +23°C° 0 mm 1 mps 687 mmHg 91%
    08:00 +24°C° 0 mm 2 mps 687 mmHg 86%
    09:00 +26°C° 0 mm 2 mps 688 mmHg 81%
    10:00 +27°C° 0 mm 2 mps 688 mmHg 74%
    11:00 +29°C° 0 mm 3 mps 688 mmHg 68%
    12:00 +30°C° 0 mm 3 mps 688 mmHg 61%
    13:00 +30°C° 0.2 mm 3 mps 688 mmHg 62%
    14:00 +30°C° 0.2 mm 3 mps 687 mmHg 63%
    15:00 +31°C° 0.2 mm 2 mps 687 mmHg 63%
    16:00 +29°C° 0.9 mm 2 mps 687 mmHg 71%
    17:00 +28°C° 0.9 mm 2 mps 686 mmHg 79%
    18:00 +27°C° 0.9 mm 1 mps 686 mmHg 87%
    19:00 +26°C° 0.6 mm 1 mps 687 mmHg 89%
    20:00 +24°C° 0.6 mm 1 mps 687 mmHg 91%
    21:00 +21°C° 0.6 mm 0 mps 687 mmHg 93%
    22:00 +21°C° 0.4 mm 0 mps 687 mmHg 94%
    23:00 +21°C° 0.4 mm 0 mps 687 mmHg 94%

    20 January, Sunday

    Time Temperature Precipitation Wind Pressure Humidity
    00:00 +20°C° 0.4 mm 0 mps 688 mmHg 94%
    01:00 +22°C° 0.4 mm 1 mps 687 mmHg 95%
    02:00 +22°C° 0.4 mm 1 mps 687 mmHg 95%
    03:00 +22°C° 0.4 mm 1 mps 687 mmHg 96%
    04:00 +21°C° 0 mm 2 mps 687 mmHg 96%
    05:00 +21°C° 0 mm 2 mps 687 mmHg 96%
    06:00 +21°C° 0 mm 2 mps 687 mmHg 96%
    07:00 +23°C° 0.1 mm 2 mps 688 mmHg 92%
    08:00 +24°C° 0.1 mm 2 mps 689 mmHg 88%
    09:00 +25°C° 0.1 mm 2 mps 689 mmHg 84%
    10:00 +26°C° 0.7 mm 2 mps 689 mmHg 84%
    11:00 +26°C° 0.7 mm 2 mps 689 mmHg 84%
    12:00 +27°C° 0.7 mm 2 mps 689 mmHg 83%
    13:00 +27°C° 0.7 mm 2 mps 689 mmHg 83%
    14:00 +27°C° 0.7 mm 2 mps 688 mmHg 82%
    15:00 +27°C° 0.7 mm 2 mps 688 mmHg 82%
    16:00 +27°C° 0.9 mm 2 mps 688 mmHg 84%
    17:00 +27°C° 0.9 mm 2 mps 688 mmHg 86%
    18:00 +26°C° 0.9 mm 1 mps 688 mmHg 87%
    19:00 +25°C° 0.3 mm 1 mps 688 mmHg 90%
    20:00 +24°C° 0.3 mm 1 mps 688 mmHg 93%
    21:00 +23°C° 0.3 mm 1 mps 688 mmHg 96%
    22:00 +22°C° 0 mm 1 mps 688 mmHg 96%
    23:00 +22°C° 0 mm 1 mps 688 mmHg 97%

    21 January, Monday

    Time Temperature Precipitation Wind Pressure Humidity
    00:00 +22°C° 0 mm 1 mps 689 mmHg 97%
    01:00 +22°C° 0.1 mm 1 mps 688 mmHg 97%
    02:00 +21°C° 0.1 mm 1 mps 688 mmHg 97%
    03:00 +21°C° 0.1 mm 1 mps 687 mmHg 97%
    04:00 +21°C° 0 mm 1 mps 687 mmHg 98%
    05:00 +21°C° 0 mm 1 mps 688 mmHg 98%
    06:00 +21°C° 0 mm 1 mps 688 mmHg 98%
    07:00 +23°C° 0.2 mm 1 mps 688 mmHg 92%
    08:00 +24°C° 0.2 mm 2 mps 689 mmHg 86%
    09:00 +26°C° 0.2 mm 2 mps 690 mmHg 80%
    10:00 +27°C° 0.9 mm 3 mps 689 mmHg 80%
    11:00 +27°C° 0.9 mm 3 mps 689 mmHg 79%
    12:00 +28°C° 0.9 mm 4 mps 689 mmHg 78%
    13:00 +28°C° 0.9 mm 3 mps 689 mmHg 77%
    14:00 +28°C° 0.9 mm 3 mps 689 mmHg 76%
    15:00 +28°C° 0.9 mm 3 mps 688 mmHg 75%
    16:00 +28°C° 0.6 mm 3 mps 688 mmHg 79%
    17:00 +27°C° 0.6 mm 2 mps 688 mmHg 83%
    18:00 +27°C° 0.6 mm 2 mps 688 mmHg 86%
    19:00 +25°C° 0.4 mm 1 mps 688 mmHg 89%
    20:00 +24°C° 0.4 mm 1 mps 689 mmHg 92%
    21:00 +21°C° 0.4 mm 0 mps 689 mmHg 95%
    22:00 +21°C° 0 mm 0 mps 689 mmHg 95%
    23:00 +21°C° 0 mm 0 mps 689 mmHg 96%

    22 January, Tuesday

    Time Temperature Precipitation Wind Pressure Humidity
    00:00 +23°C° 0 mm 1 mps 689 mmHg 96%
    01:00 +20°C° 0 mm 0 mps 688 mmHg 96%
    02:00 +20°C° 0 mm 0 mps 688 mmHg 97%
    03:00 +20°C° 0 mm 0 mps 688 mmHg 97%
    04:00 +22°C° 0 mm 1 mps 688 mmHg 97%
    05:00 +22°C° 0 mm 1 mps 688 mmHg 96%
    06:00 +22°C° 0 mm 1 mps 688 mmHg 96%
    07:00 +24°C° 0.3 mm 1 mps 689 mmHg 90%
    08:00 +26°C° 0.3 mm 2 mps 689 mmHg 84%
    09:00 +28°C° 0.3 mm 3 mps 690 mmHg 78%
    10:00 +28°C° 0.9 mm 3 mps 690 mmHg 78%
    11:00 +29°C° 0.9 mm 3 mps 689 mmHg 78%
    12:00 +29°C° 0.9 mm 3 mps 689 mmHg 78%
    13:00 +29°C° 1.8 mm 3 mps 689 mmHg 80%
    14:00 +29°C° 1.8 mm 3 mps 689 mmHg 81%
    15:00 +28°C° 1.8 mm 3 mps 688 mmHg 83%
    16:00 +27°C° 2.7 mm 2 mps 688 mmHg 86%
    17:00 +26°C° 2.7 mm 2 mps 688 mmHg 89%
    18:00 +26°C° 2.7 mm 1 mps 688 mmHg 92%
    19:00 +25°C° 0.4 mm 1 mps 688 mmHg 93%
    20:00 +24°C° 0.4 mm 1 mps 688 mmHg 94%
    21:00 +23°C° 0.4 mm 1 mps 688 mmHg 94%
    22:00 +23°C° 0 mm 1 mps 688 mmHg 94%
    23:00 +20°C° 0 mm 0 mps 688 mmHg 94%
    Show more